[[{"header":{"parameterUnit":"m.s-1","parameterCategory":1,"la1":30.2991,"la2":30.254,"lo1":-89.0895,"lo2":-89.0444,"dy":0.0017,"dx":0.0017,"nx":28,"ny":28,"refTime":"2023-10-26T03:00:00:Z","depth":0,"parameterNumber":2,"parameterNumberName":"U-component_of_WINDS"},"data":[0,0,0,0,0,0,0,0,0,0,0,0,0,0,0,0,0,0,0,0,0,0,0,0,0,0,0,0,0,0,0,0,0,0,0,0,0,0,0,0,0,0,0,0,0,0,0,0,0,0,0,0,0,0,0,0,0,0,-6.0933,-6.0933,0,-6.0964,-6.0965,-6.0965,-6.0833,-6.0829,-6.0825,-6.0821,-6.0852,-6.0857,-6.0861,0,0,0,0,0,0,0,0,0,0,0,0,0,-6.0757,-6.0761,-6.0933,-6.0933,-6.0933,-6.0964,-6.0965,-6.0965,-6.0833,-6.0829,-6.0824,-6.0819,-6.0851,-6.0856,-6.0862,0,0,0,0,0,0,0,0,0,0,0,0,0,-6.0816,-6.0763,-6.0932,-6.0871,-6.0866,-6.0964,-6.0965,-6.0965,-6.0834,-6.0828,-6.0823,-6.0817,-6.0849,-6.0856,-6.0862,-6.102,0,0,-6.0883,-6.0886,0,0,0,0,0,0,0,0,-6.0813,-6.0822,-6.088,-6.0876,-6.087,-6.0889,-6.0914,-6.0984,-6.0836,-6.0846,-6.0821,-6.0814,-6.0869,-6.0874,-6.0892,-6.1022,-6.1023,-6.0883,-6.0887,-6.089,-6.0892,0,0,0,0,0,0,0,-6.0809,-6.082,-6.0945,-6.0881,-6.0875,-6.0842,-6.0844,-6.0927,-6.089,-6.0845,-6.0835,-6.0841,-6.0865,-6.0886,-6.0892,-6.1023,-6.0883,-6.0889,-6.0893,-6.0896,-6.1284,-6.129,0,0,0,0,0,0,-6.0813,-6.0818,-6.0944,-6.0946,-6.0827,-6.085,-6.0852,-6.0889,-6.0889,-6.0883,-6.0846,-6.0835,-6.0878,-6.0885,-6.0893,-6.1077,-6.089,-6.0896,-6.09,-6.1278,-6.1285,-6.1292,0,0,0,0,0,0,-6.081,-6.0825,-6.0943,-6.0879,-6.0892,-6.0859,-6.0901,-6.0892,-6.0913,-6.089,-6.0882,-6.0874,-6.0873,-6.0883,-6.0989,-6.1076,-6.0899,-6.0905,-6.127,-6.128,-6.1289,-6.1446,0,0,0,0,0,0,-6.0805,-6.0825,-6.0885,-6.0882,-6.0896,-6.1039,-6.0907,-6.0897,-6.0925,-6.0911,-6.0914,-6.0909,-6.087,-6.098,-6.0996,-6.1082,-6.0911,-6.1262,-6.1274,-6.1286,-6.1433,-6.146,-6.1483,0,0,0,0,0,-6.0799,-6.0927,-6.0888,-6.0904,-6.0969,-6.1045,-6.1052,-6.1005,-6.0933,-6.0992,-6.0977,-6.0909,-6.1065,-6.0992,-6.1009,-6.1098,-6.1256,-6.1271,-6.1285,-6.1422,-6.1455,-6.1483,0,0,0,0,0,0,-6.094,-6.0926,-6.0882,-6.1013,-6.1031,-6.1022,-6.1095,-6.1041,-6.1079,-6.1064,-6.1003,-6.1005,-6.1122,-6.1121,-6.104,-6.1251,-6.1148,-6.1166,-6.1247,-6.1278,-6.1302,-6.1298,-6.0916,0,0,0,0,0,-6.0987,-6.1049,-6.1033,-6.115,-6.1162,-6.1128,-6.1159,-6.1121,-6.1137,-6.1143,-6.1136,-6.1154,-6.1207,-6.1243,-6.129,-6.1434,-6.1432,-6.1504,-6.1529,-6.1549,-6.1565,-6.164,-6.1671,-6.1339,-6.1338,-6.1338,0,0,-6.1083,-6.1083,-6.1126,-6.1179,-6.1188,-6.1254,-6.1135,-6.1209,-6.1257,-6.1154,-6.1253,-6.125,-6.1266,-6.1392,-6.1447,-6.1394,-6.1657,-6.1567,-6.1584,-6.1588,-6.1658,-6.1689,-6.1717,-6.1348,-6.1346,-6.1345,0,0,-6.129,-6.1298,-6.1396,-6.1408,-6.1425,-6.1402,-6.1426,-6.1426,-6.1419,-6.1518,-6.1443,-6.15,-6.1592,-6.1606,-6.1626,-6.1843,-6.1781,-6.1861,-6.1989,-6.2064,-6.209,-6.2112,-6.2188,-6.2217,-6.1877,-6.1877,-6.1877,0,-6.1407,-6.1503,-6.1453,-6.1533,-6.1558,-6.147,-6.1569,-6.1583,-6.1615,-6.1634,-6.1576,-6.1691,-6.1695,-6.1823,-6.1876,-6.1896,-6.192,-6.1858,-6.209,-6.2113,-6.2133,-6.2205,-6.2234,-6.1886,-6.1885,-6.1884,-6.1883,0,-6.1646,-6.1714,-6.1791,-6.1824,-6.1859,-6.1948,-6.1911,-6.1952,-6.1913,-6.1896,-6.1998,-6.2002,-6.2048,-6.2076,-6.2038,-6.2199,-6.2166,-6.2101,-6.1995,-6.2175,-6.2241,-6.2268,-6.19,-6.1896,-6.1894,-6.1891,0,0,-6.1939,-6.1945,-6.1974,-6.1988,-6.2001,-6.2053,-6.2139,-6.2185,-6.2221,-6.2247,-6.2316,-6.2398,-6.2338,-6.236,-6.2323,-6.2389,-6.256,-6.2315,-6.2314,-6.2359,-6.2736,-6.2784,-6.2816,-6.2521,-6.2526,-6.253,-6.2734,0,-6.2141,-6.2287,-6.2245,-6.2392,-6.2454,-6.2373,-6.2448,-6.2464,-6.2452,-6.2503,-6.2489,-6.2547,-6.2464,-6.2477,-6.2539,-6.2526,-6.2634,-6.2511,-6.2583,-6.2586,-6.2579,-6.2851,-6.2901,-6.3093,-6.276,-6.2764,-6.2768,0,-6.2395,-6.2432,-6.2585,-6.2588,-6.2613,-6.2681,-6.272,-6.277,-6.2788,-6.2774,-6.2801,-6.2752,-6.2836,-6.2733,-6.2848,-6.2766,-6.2793,-6.2792,-6.2798,-6.28,-6.2686,-6.2858,-6.3154,-6.3182,-6.2808,-6.2805,-6.2802,0,-6.2591,-6.2679,-6.2781,-6.2797,-6.2804,-6.2854,-6.2859,-6.2871,-6.2902,-6.2937,-6.2956,-6.3001,-6.3025,-6.3061,-6.3025,-6.2954,-6.3146,-6.304,-6.3135,-6.3137,-6.3176,-6.3174,-6.3478,-6.32,-6.3199,-6.3199,-6.3198,0,-6.2819,-6.2916,-6.287,-6.2932,-6.3038,-6.2991,-6.3096,-6.3093,-6.3105,-6.3165,-6.3099,-6.3158,-6.3108,-6.3162,-6.3135,-6.3233,-6.3245,-6.3236,-6.3227,-6.324,-6.3241,-6.3255,-6.324,-6.3206,-6.3205,-6.3203,-6.3202,0,-6.3054,-6.3028,-6.3134,-6.3134,-6.3136,-6.3214,-6.3213,-6.3271,-6.3256,-6.3333,-6.3349,-6.3324,-6.3385,-6.3353,-6.3416,-6.3398,-6.3525,-6.3499,-6.3519,-6.3511,-6.3608,-6.3598,-6.3929,-6.3969,-6.3668,-6.3671,-6.3674,0,-6.32,-6.3272,-6.328,-6.3316,-6.3327,-6.3386,-6.3418,-6.3375,-6.341,-6.3437,-6.3492,-6.3548,-6.3589,-6.369,-6.3677,-6.3725,-6.3698,-6.3811,-6.3704,-6.3716,-6.3697,-6.3692,-6.3698,-6.3831,-6.3835,-6.3837,-6.384,0,-6.3461,-6.3445,-6.3493,-6.3538,-6.3578,-6.3611,-6.3638,-6.3672,-6.363,-6.3674,-6.3735,-6.3767,-6.3832,-6.3887,-6.393,-6.3935,-6.3881,-6.3874,-6.3898,-6.3911,-6.3918,-6.3914,-6.3574,-6.3866,-6.3863,-6.3861,-6.386,-6.3859,-6.3653,-6.3714,-6.3729,-6.3786,-6.3803,-6.383,-6.3885,-6.3877,-6.3928,-6.3977,-6.395,-6.4022,-6.4039,-6.4089,-6.4103,-6.4158,-6.4113,-6.4149,-6.4157,-6.4166,-6.4178,-6.3913,-6.4166,-6.4165,-6.4165,-6.4164,-6.4163,0,-6.3908,-6.3915,-6.3968,-6.4009,-6.4054,-6.4002,-6.403,-6.407,-6.4135,-6.4156,-6.4199,-6.427,-6.4324,-6.4318,-6.4367,-6.4413,-6.4389,-6.4427,-6.4422,-6.4424,-6.4216,-6.4189,-6.4445,-6.4445,-6.4445,-6.4445,-6.4445,-6.4445,-6.4046,-6.4145,-6.4132,-6.4239,-6.4245,-6.4316,-6.4336,-6.4362,-6.4378,-6.4461,-6.4506,-6.4502,-6.4512,-6.4562,-6.4609,-6.4606,-6.4626,-6.4673,-6.4661,-6.4466,-6.4438,-6.4411,-6.4386,-6.4679,-6.4679,-6.4863,-6.4864,-6.4866]},{"header":{"parameterUnit":"m.s-1","parameterCategory":1,"la1":30.2991,"la2":30.254,"lo1":-89.0895,"lo2":-89.0444,"dy":0.0017,"dx":0.0017,"nx":28,"ny":28,"refTime":"2023-10-26T03:00:00:Z","depth":0,"parameterNumber":3,"parameterNumberName":"V-component_of_WINDS"},"data":[0,0,0,0,0,0,0,0,0,0,0,0,0,0,0,0,0,0,0,0,0,0,0,0,0,0,0,0,0,0,0,0,0,0,0,0,0,0,0,0,0,0,0,0,0,0,0,0,0,0,0,0,0,0,0,0,0,0,1.0567,1.0567,0,1.0599,1.0599,1.0599,1.0586,1.0585,1.0584,1.0583,1.0616,1.0617,1.0619,0,0,0,0,0,0,0,0,0,0,0,0,0,1.0496,1.0497,1.0567,1.0567,1.0568,1.0598,1.0599,1.0599,1.0586,1.0585,1.0584,1.0583,1.0615,1.0617,1.0619,0,0,0,0,0,0,0,0,0,0,0,0,0,1.0527,1.0498,1.0567,1.0564,1.0565,1.0598,1.0599,1.0599,1.0586,1.0585,1.0584,1.0583,1.0614,1.0617,1.0619,1.0657,0,0,1.0626,1.0627,0,0,0,0,0,0,0,0,1.0525,1.053,1.0564,1.0565,1.0565,1.0587,1.0586,1.0619,1.0586,1.0578,1.0583,1.0582,1.0607,1.061,1.0618,1.0658,1.066,1.0626,1.0628,1.0629,1.063,0,0,0,0,0,0,0,1.0523,1.0528,1.0579,1.0565,1.0565,1.0562,1.0566,1.0592,1.0598,1.0578,1.0578,1.0582,1.0607,1.0616,1.0619,1.066,1.0626,1.0628,1.063,1.0631,1.0736,1.0737,0,0,0,0,0,0,1.0521,1.0526,1.0578,1.058,1.0542,1.0565,1.0568,1.0581,1.0598,1.06,1.0582,1.0581,1.0613,1.0616,1.062,1.0667,1.0629,1.0631,1.0632,1.0734,1.0736,1.0738,0,0,0,0,0,0,1.0519,1.0526,1.0577,1.0553,1.0559,1.0567,1.0582,1.0582,1.0591,1.0601,1.0602,1.0591,1.0612,1.0617,1.0648,1.0668,1.0632,1.0634,1.0733,1.0735,1.0737,1.0761,0,0,0,0,0,0,1.0517,1.0525,1.0539,1.0554,1.0561,1.0604,1.0583,1.0584,1.0596,1.0594,1.0609,1.0611,1.0611,1.0645,1.0651,1.0671,1.0636,1.0731,1.0734,1.0736,1.0758,1.0764,1.0768,0,0,0,0,0,1.0515,1.0544,1.054,1.0546,1.0578,1.0605,1.061,1.061,1.0597,1.0612,1.0619,1.061,1.0665,1.0648,1.0655,1.0676,1.073,1.0733,1.0736,1.0756,1.0763,1.0768,0,0,0,0,0,0,1.053,1.0545,1.0541,1.0575,1.059,1.0603,1.0621,1.0616,1.0634,1.0631,1.0631,1.0635,1.0668,1.0675,1.0656,1.0715,1.0696,1.07,1.0709,1.0715,1.072,1.0718,1.0638,0,0,0,0,0,1.0538,1.0558,1.0571,1.06,1.0607,1.0613,1.0625,1.0624,1.0639,1.0644,1.0653,1.0668,1.0688,1.0702,1.0721,1.076,1.0764,1.0777,1.0782,1.0786,1.079,1.0813,1.082,1.0748,1.0748,1.0748,0,0,1.0553,1.0564,1.0577,1.0603,1.0614,1.0636,1.0618,1.0642,1.0659,1.0648,1.0679,1.0686,1.0702,1.0738,1.0754,1.0745,1.0811,1.079,1.0793,1.0795,1.0817,1.0824,1.083,1.075,1.0749,1.0749,0,0,1.0593,1.0603,1.0629,1.0641,1.0658,1.0662,1.0669,1.0684,1.0689,1.072,1.0713,1.0734,1.0769,1.0781,1.0792,1.084,1.0834,1.0847,1.0872,1.0894,1.09,1.0905,1.0924,1.0931,1.0851,1.0851,1.0851,0,1.061,1.0643,1.0643,1.0669,1.0681,1.0674,1.0702,1.0713,1.0735,1.0745,1.0734,1.078,1.079,1.083,1.0842,1.0851,1.0859,1.0845,1.0899,1.0904,1.0909,1.0927,1.0934,1.0852,1.0852,1.0852,1.0852,0,1.0664,1.0687,1.0707,1.073,1.0745,1.0771,1.0777,1.0792,1.0791,1.0797,1.083,1.0842,1.0865,1.0875,1.0873,1.0915,1.0909,1.0899,1.088,1.0918,1.0935,1.0942,1.0854,1.0854,1.0853,1.0853,0,0,1.0713,1.0738,1.0745,1.0757,1.0776,1.0795,1.0822,1.0845,1.0859,1.0875,1.0899,1.093,1.0922,1.0934,1.0934,1.0954,1.0994,1.0942,1.0942,1.0953,1.1044,1.1053,1.1061,1.099,1.0992,1.0993,1.1044,0,1.0756,1.0803,1.0806,1.0849,1.0872,1.0866,1.089,1.0905,1.0912,1.0933,1.094,1.0963,1.0949,1.0957,1.0977,1.0985,1.1013,1.0981,1.1013,1.1015,1.1011,1.1069,1.1078,1.1125,1.105,1.1051,1.1052,0,1.0811,1.0831,1.0877,1.0896,1.0905,1.0927,1.095,1.0969,1.0987,1.0991,1.1007,1.1005,1.1034,1.1014,1.1054,1.1033,1.1047,1.1053,1.1055,1.1059,1.1036,1.1076,1.114,1.1147,1.1062,1.1061,1.106,0,1.0845,1.0882,1.0915,1.0925,1.0948,1.0963,1.0973,1.099,1.1005,1.1025,1.1035,1.1058,1.1071,1.109,1.1095,1.1079,1.1136,1.1116,1.1141,1.1141,1.1154,1.1153,1.1222,1.1161,1.1161,1.116,1.116,0,1.0892,1.0921,1.0931,1.0952,1.0984,1.0988,1.102,1.1029,1.1045,1.1068,1.1064,1.1086,1.1091,1.1114,1.1118,1.1153,1.1158,1.1163,1.1164,1.1164,1.1163,1.1173,1.117,1.1162,1.1162,1.1161,1.1161,0,1.0935,1.0943,1.0979,1.0998,1.1004,1.1027,1.1044,1.1064,1.1071,1.1101,1.1108,1.1119,1.1146,1.1153,1.1185,1.1188,1.123,1.1227,1.1224,1.1224,1.125,1.1248,1.1328,1.134,1.1269,1.127,1.1271,0,1.0965,1.0988,1.101,1.1026,1.1037,1.1061,1.1077,1.1082,1.1099,1.1122,1.114,1.1167,1.1189,1.1234,1.1245,1.127,1.1269,1.1295,1.1272,1.1273,1.1271,1.127,1.1274,1.13,1.13,1.1301,1.1302,0,1.1019,1.1023,1.1046,1.1071,1.109,1.111,1.1129,1.1142,1.1149,1.1169,1.1197,1.1214,1.1248,1.1276,1.1302,1.1313,1.131,1.1309,1.1316,1.1317,1.1315,1.1319,1.1237,1.1307,1.1306,1.1306,1.1306,1.1306,1.1058,1.1079,1.1098,1.1125,1.114,1.1159,1.118,1.119,1.1214,1.1243,1.1244,1.1276,1.1295,1.133,1.1343,1.1368,1.136,1.1371,1.1374,1.1376,1.138,1.1311,1.1373,1.1373,1.1373,1.1372,1.1372,0,1.1113,1.1126,1.1151,1.1178,1.12,1.1195,1.1216,1.1235,1.1263,1.1282,1.1304,1.1338,1.1366,1.138,1.1408,1.1425,1.1425,1.1433,1.1432,1.1435,1.1384,1.1376,1.1433,1.1433,1.1433,1.1433,1.1433,1.1433,1.1145,1.118,1.1187,1.1231,1.1243,1.1275,1.1288,1.1306,1.1321,1.1359,1.1383,1.1392,1.141,1.1439,1.1465,1.1469,1.148,1.1489,1.1492,1.1444,1.1438,1.1432,1.1424,1.1491,1.1491,1.1541,1.1541,1.1542]}]]